Back to Top

Language: 

My Weather Underground Personal Weather Station Historical Data with Graphs...

Delerius Weather Station Historical Data
Daily Summary for February 13, 2017 Units:  English    Metric   Both
« Previous Day
Next Day »
Daily Weekly Monthly Yearly Custom
  High: Low: Average:
Temperature: 45.0 °F 37.2 °F 39.4 °F
Dew Point: 41.4 °F 35.6 °F 37.6 °F
Humidity: 97 % 86 % 93 %
Wind Speed: 9.0 mph 3.0 mph 5.6 mph
Wind Gust: 20.0 mph - -
Wind:- - ENE
Pressure: 30.38 in 30.28 in -
Precipitation: 0.00 in    
Historical Graphs
 
 
Tabular Data for February 13, 2017
Time Temperature Dew Point Pressure Wind Wind Speed Wind Gust Humidity Rainfall Rate (Hourly) solar Conditions
00:05 37.8 °F 36.5 °F 30.37 in ENE 7.0 mph 8.0 mph 95 % 0.00 in 0 W/m2
00:15 37.8 °F 36.5 °F 30.37 in East 6.0 mph 7.0 mph 95 % 0.00 in 0 W/m2
00:25 37.8 °F 36.5 °F 30.36 in South 6.0 mph 7.0 mph 95 % 0.00 in 0 W/m2
00:30 37.7 °F 36.4 °F 30.36 in NE 6.0 mph 7.0 mph 95 % 0.00 in 0 W/m2
00:35 37.8 °F 36.5 °F 30.36 in SE 7.0 mph 7.0 mph 95 % 0.00 in 0 W/m2
00:45 37.7 °F 36.4 °F 30.37 in East 7.0 mph 7.0 mph 95 % 0.00 in 0 W/m2
00:50 37.7 °F 36.4 °F 30.37 in ESE 6.0 mph 6.0 mph 95 % 0.00 in 0 W/m2
00:55 37.7 °F 36.4 °F 30.37 in ENE 5.0 mph 6.0 mph 95 % 0.00 in 0 W/m2
01:00 37.7 °F 36.4 °F 30.37 in ENE 4.0 mph 4.0 mph 95 % 0.00 in 0 W/m2
01:10 37.6 °F 36.3 °F 30.38 in East 3.0 mph 3.0 mph 95 % 0.00 in 0 W/m2
01:20 37.7 °F 36.4 °F 30.38 in ENE 4.0 mph 20.0 mph 95 % 0.00 in 0 W/m2
01:25 37.7 °F 36.4 °F 30.38 in ENE 5.0 mph 20.0 mph 95 % 0.00 in 0 W/m2
01:35 37.7 °F 36.4 °F 30.38 in ENE 5.0 mph 6.0 mph 95 % 0.00 in 0 W/m2
01:40 37.7 °F 36.7 °F 30.38 in East 4.0 mph 20.0 mph 96 % 0.00 in 0 W/m2
01:45 37.7 °F 36.4 °F 30.37 in ENE 5.0 mph 20.0 mph 95 % 0.00 in 0 W/m2
01:50 37.7 °F 36.4 °F 30.37 in NE 6.0 mph 20.0 mph 95 % 0.00 in 0 W/m2
01:55 37.7 °F 36.4 °F 30.37 in NE 6.0 mph 20.0 mph 95 % 0.00 in 0 W/m2
02:05 37.8 °F 36.8 °F 30.37 in ENE 6.0 mph 7.0 mph 96 % 0.00 in 0 W/m2
02:10 37.8 °F 36.8 °F 30.37 in East 6.0 mph 20.0 mph 96 % 0.00 in 0 W/m2
02:15 37.8 °F 36.8 °F 30.37 in ENE 6.0 mph 20.0 mph 96 % 0.00 in 0 W/m2
02:25 37.8 °F 36.8 °F 30.36 in East 7.0 mph 20.0 mph 96 % 0.00 in 0 W/m2
02:30 37.8 °F 36.8 °F 30.36 in ENE 7.0 mph 20.0 mph 96 % 0.00 in 0 W/m2
02:35 37.8 °F 36.8 °F 30.36 in ESE 5.0 mph 20.0 mph 96 % 0.00 in 0 W/m2
02:40 37.8 °F 36.8 °F 30.36 in ENE 5.0 mph 5.0 mph 96 % 0.00 in 0 W/m2
02:50 37.7 °F 36.7 °F 30.35 in ENE 7.0 mph 7.0 mph 96 % 0.00 in 0 W/m2
02:55 37.7 °F 36.7 °F 30.35 in NE 7.0 mph 20.0 mph 96 % 0.00 in 0 W/m2
03:00 37.7 °F 36.7 °F 30.35 in ENE 6.0 mph 20.0 mph 96 % 0.00 in 0 W/m2
03:10 37.7 °F 36.7 °F 30.35 in ENE 6.0 mph 6.0 mph 96 % 0.00 in 0 W/m2
03:20 37.6 °F 36.6 °F 30.35 in ESE 4.0 mph 20.0 mph 96 % 0.00 in 0 W/m2
03:25 37.6 °F 36.6 °F 30.35 in East 5.0 mph 20.0 mph 96 % 0.00 in 0 W/m2
03:30 37.5 °F 36.5 °F 30.35 in East 7.0 mph 20.0 mph 96 % 0.00 in 0 W/m2
03:35 37.5 °F 36.5 °F 30.35 in East 7.0 mph 20.0 mph 96 % 0.00 in 0 W/m2
03:40 37.4 °F 36.4 °F 30.35 in NE 7.0 mph 7.0 mph 96 % 0.00 in 0 W/m2
03:50 37.4 °F 36.4 °F 30.35 in ESE 7.0 mph 20.0 mph 96 % 0.00 in 0 W/m2
03:55 37.4 °F 36.4 °F 30.35 in East 7.0 mph 20.0 mph 96 % 0.00 in 0 W/m2
04:00 37.4 °F 36.4 °F 30.35 in ESE 7.0 mph 7.0 mph 96 % 0.00 in 0 W/m2
04:10 37.4 °F 36.4 °F 30.35 in ESE 8.0 mph 20.0 mph 96 % 0.00 in 0 W/m2
04:15 37.3 °F 36.3 °F 30.35 in East 8.0 mph 20.0 mph 96 % 0.00 in 0 W/m2
04:20 37.3 °F 36.3 °F 30.34 in ENE 7.0 mph 20.0 mph 96 % 0.00 in 0 W/m2
04:25 37.3 °F 36.3 °F 30.35 in NE 6.0 mph 20.0 mph 96 % 0.00 in 0 W/m2
04:35 37.3 °F 36.3 °F 30.35 in ENE 3.0 mph 20.0 mph 96 % 0.00 in 0 W/m2
04:40 37.3 °F 36.5 °F 30.35 in ENE 4.0 mph 20.0 mph 97 % 0.00 in 0 W/m2
04:45 37.3 °F 36.5 °F 30.35 in NE 5.0 mph 20.0 mph 97 % 0.00 in 0 W/m2
04:50 37.2 °F 36.4 °F 30.35 in ESE 6.0 mph 6.0 mph 97 % 0.00 in 0 W/m2
04:55 37.2 °F 36.4 °F 30.35 in ENE 7.0 mph 7.0 mph 97 % 0.00 in 0 W/m2
05:05 37.2 °F 36.4 °F 30.35 in ENE 6.0 mph 20.0 mph 97 % 0.00 in 0 W/m2
05:10 37.2 °F 36.4 °F 30.35 in ENE 6.0 mph 20.0 mph 97 % 0.00 in 0 W/m2
05:15 37.2 °F 36.4 °F 30.35 in NE 6.0 mph 20.0 mph 97 % 0.00 in 0 W/m2
05:20 37.2 °F 36.4 °F 30.36 in NE 6.0 mph 20.0 mph 97 % 0.00 in 0 W/m2
05:25 37.2 °F 36.4 °F 30.35 in ENE 6.0 mph 20.0 mph 97 % 0.00 in 0 W/m2
05:30 37.2 °F 36.4 °F 30.35 in East 6.0 mph 20.0 mph 97 % 0.00 in 0 W/m2
05:40 37.2 °F 36.4 °F 30.35 in East 5.0 mph 5.0 mph 97 % 0.00 in 0 W/m2
05:45 37.2 °F 36.4 °F 30.35 in East 5.0 mph 7.0 mph 97 % 0.00 in 0 W/m2
05:50 37.2 °F 36.4 °F 30.35 in ENE 6.0 mph 20.0 mph 97 % 0.00 in 0 W/m2
05:55 37.3 °F 36.5 °F 30.35 in ENE 6.0 mph 20.0 mph 97 % 0.00 in 0 W/m2
06:05 37.3 °F 36.5 °F 30.35 in East 5.0 mph 20.0 mph 97 % 0.00 in 0 W/m2
06:10 37.3 °F 36.5 °F 30.35 in ENE 6.0 mph 6.0 mph 97 % 0.00 in 0 W/m2
06:15 37.3 °F 36.5 °F 30.35 in NE 5.0 mph 7.0 mph 97 % 0.00 in 0 W/m2
06:20 37.4 °F 36.6 °F 30.35 in NE 6.0 mph 20.0 mph 97 % 0.00 in 0 W/m2
06:30 37.4 °F 36.6 °F 30.35 in ENE 5.0 mph 20.0 mph 97 % 0.00 in 0 W/m2
06:35 37.5 °F 36.7 °F 30.35 in ENE 5.0 mph 20.0 mph 97 % 0.00 in 0 W/m2
06:40 37.5 °F 36.7 °F 30.35 in ENE 6.0 mph 20.0 mph 97 % 0.00 in 0 W/m2
06:45 37.5 °F 36.7 °F 30.36 in NE 7.0 mph 20.0 mph 97 % 0.00 in 0 W/m2
06:55 37.6 °F 36.8 °F 30.36 in East 5.0 mph 20.0 mph 97 % 0.00 in 0 W/m2
07:00 37.6 °F 36.8 °F 30.36 in ENE 4.0 mph 20.0 mph 97 % 0.00 in 0 W/m2
07:10 37.6 °F 36.8 °F 30.35 in ENE 5.0 mph 5.0 mph 97 % 0.00 in 0 W/m2
07:15 37.6 °F 36.8 °F 30.35 in East 6.0 mph 7.0 mph 97 % 0.00 in 0 W/m2
07:20 37.7 °F 36.9 °F 30.35 in ENE 6.0 mph 6.0 mph 97 % 0.00 in 0 W/m2
07:30 37.7 °F 36.9 °F 30.35 in SE 5.0 mph 5.0 mph 97 % 0.00 in 0 W/m2
07:35 37.8 °F 37.0 °F 30.35 in ESE 4.0 mph 20.0 mph 97 % 0.00 in 0 W/m2
07:40 37.8 °F 37.0 °F 30.35 in ENE 4.0 mph 20.0 mph 97 % 0.00 in 0 W/m2
07:45 37.8 °F 37.0 °F 30.35 in ENE 5.0 mph 20.0 mph 97 % 0.00 in 0 W/m2
07:55 37.9 °F 37.1 °F 30.35 in East 5.0 mph 20.0 mph 97 % 0.00 in 5 W/m2
08:00 37.9 °F 37.1 °F 30.35 in ENE 5.0 mph 20.0 mph 97 % 0.00 in 7 W/m2
08:10 38.0 °F 37.2 °F 30.36 in ENE 5.0 mph 5.0 mph 97 % 0.00 in 9 W/m2
08:15 38.1 °F 37.3 °F 30.36 in ENE 5.0 mph 20.0 mph 97 % 0.00 in 12 W/m2
08:25 38.1 °F 37.3 °F 30.36 in East 5.0 mph 20.0 mph 97 % 0.00 in 14 W/m2
08:30 38.1 °F 37.3 °F 30.36 in NE 4.0 mph 20.0 mph 97 % 0.00 in 12 W/m2
08:35 38.2 °F 37.4 °F 30.36 in NE 3.0 mph 20.0 mph 97 % 0.00 in 14 W/m2
08:45 38.3 °F 37.5 °F 30.36 in ESE 4.0 mph 20.0 mph 97 % 0.00 in 25 W/m2
08:50 38.3 °F 37.5 °F 30.36 in East 5.0 mph 20.0 mph 97 % 0.00 in 19 W/m2
08:55 38.3 °F 37.5 °F 30.35 in ENE 5.0 mph 20.0 mph 97 % 0.00 in 18 W/m2
09:00 38.4 °F 37.6 °F 30.36 in ENE 6.0 mph 6.0 mph 97 % 0.00 in 25 W/m2
09:10 38.5 °F 37.7 °F 30.36 in ENE 5.0 mph 5.0 mph 97 % 0.00 in 28 W/m2
09:15 38.5 °F 37.7 °F 30.36 in East 5.0 mph 7.0 mph 97 % 0.00 in 33 W/m2
09:20 38.5 °F 37.7 °F 30.36 in ENE 6.0 mph 20.0 mph 97 % 0.00 in 23 W/m2
09:30 38.6 °F 37.8 °F 30.36 in NE 6.0 mph 6.0 mph 97 % 0.00 in 33 W/m2
09:35 38.6 °F 37.6 °F 30.35 in ENE 6.0 mph 20.0 mph 96 % 0.00 in 39 W/m2
09:40 38.7 °F 37.7 °F 30.36 in NE 5.0 mph 5.0 mph 96 % 0.00 in 54 W/m2
09:45 38.7 °F 37.7 °F 30.36 in ENE 4.0 mph 8.0 mph 96 % 0.00 in 46 W/m2
09:50 38.7 °F 37.7 °F 30.36 in NE 5.0 mph 20.0 mph 96 % 0.00 in 63 W/m2
10:00 38.9 °F 37.9 °F 30.36 in NE 5.0 mph 20.0 mph 96 % 0.00 in 47 W/m2
10:05 38.9 °F 37.9 °F 30.36 in NE 5.0 mph 20.0 mph 96 % 0.00 in 51 W/m2
10:10 39.0 °F 38.0 °F 30.36 in ENE 5.0 mph 20.0 mph 96 % 0.00 in 84 W/m2
10:20 39.3 °F 38.3 °F 30.36 in ENE 5.0 mph 20.0 mph 96 % 0.00 in 105 W/m2
10:25 39.4 °F 38.4 °F 30.36 in ENE 4.0 mph 20.0 mph 96 % 0.00 in 102 W/m2
10:30 39.5 °F 38.5 °F 30.36 in NE 6.0 mph 20.0 mph 96 % 0.00 in 139 W/m2
10:40 39.8 °F 38.5 °F 30.36 in NE 7.0 mph 7.0 mph 95 % 0.00 in 102 W/m2
10:45 39.9 °F 38.6 °F 30.36 in East 6.0 mph 10.0 mph 95 % 0.00 in 86 W/m2
10:50 39.9 °F 38.6 °F 30.36 in ENE 7.0 mph 20.0 mph 95 % 0.00 in 90 W/m2
10:55 40.0 °F 38.7 °F 30.36 in NNE 7.0 mph 20.0 mph 95 % 0.00 in 107 W/m2
11:05 40.2 °F 38.9 °F 30.35 in ENE 6.0 mph 20.0 mph 95 % 0.00 in 105 W/m2
11:10 40.2 °F 38.9 °F 30.35 in East 6.0 mph 20.0 mph 95 % 0.00 in 90 W/m2
11:15 40.3 °F 38.7 °F 30.35 in East 7.0 mph 20.0 mph 94 % 0.00 in 95 W/m2
11:20 40.5 °F 38.9 °F 30.35 in NE 8.0 mph 8.0 mph 94 % 0.00 in 107 W/m2
11:25 40.6 °F 39.0 °F 30.35 in NE 7.0 mph 9.0 mph 94 % 0.00 in 107 W/m2
11:35 40.7 °F 39.1 °F 30.35 in NE 7.0 mph 20.0 mph 94 % 0.00 in 84 W/m2
11:40 40.8 °F 39.2 °F 30.34 in East 6.0 mph 6.0 mph 94 % 0.00 in 116 W/m2
11:45 40.9 °F 39.3 °F 30.34 in NE 7.0 mph 10.0 mph 94 % 0.00 in 95 W/m2
11:55 41.1 °F 39.5 °F 30.34 in East 7.0 mph 20.0 mph 94 % 0.00 in 109 W/m2
12:00 41.2 °F 39.6 °F 30.34 in ENE 6.0 mph 20.0 mph 94 % 0.00 in 120 W/m2
12:05 41.3 °F 39.4 °F 30.33 in ENE 7.0 mph 20.0 mph 93 % 0.00 in 151 W/m2
12:15 41.4 °F 39.5 °F 30.33 in ENE 7.0 mph 20.0 mph 93 % 0.00 in 151 W/m2
12:20 41.6 °F 39.7 °F 30.33 in East 7.0 mph 20.0 mph 93 % 0.00 in 132 W/m2
12:25 41.7 °F 39.8 °F 30.33 in NE 8.0 mph 20.0 mph 93 % 0.00 in 142 W/m2
12:35 42.1 °F 39.9 °F 30.33 in East 5.0 mph 20.0 mph 92 % 0.00 in 91 W/m2
12:40 42.3 °F 40.1 °F 30.33 in ENE 5.0 mph 5.0 mph 92 % 0.00 in 102 W/m2
12:45 42.4 °F 40.2 °F 30.33 in East 4.0 mph 7.0 mph 92 % 0.00 in 100 W/m2
12:50 42.4 °F 40.0 °F 30.33 in ENE 5.0 mph 20.0 mph 91 % 0.00 in 121 W/m2
13:00 42.5 °F 39.8 °F 30.33 in East 6.0 mph 6.0 mph 90 % 0.00 in 176 W/m2
13:05 42.7 °F 40.0 °F 30.33 in ENE 6.0 mph 20.0 mph 90 % 0.00 in 158 W/m2
13:10 42.9 °F 39.9 °F 30.32 in East 5.0 mph 5.0 mph 89 % 0.00 in 162 W/m2
13:15 43.0 °F 40.0 °F 30.32 in NNE 5.0 mph 6.0 mph 89 % 0.00 in 153 W/m2
13:20 43.3 °F 40.3 °F 30.32 in ENE 4.0 mph 20.0 mph 89 % 0.00 in 139 W/m2
13:35 43.9 °F 40.6 °F 30.32 in ENE 7.0 mph 20.0 mph 88 % 0.00 in 171 W/m2
13:45 44.6 °F 41.0 °F 30.31 in ENE 6.0 mph 20.0 mph 87 % 0.00 in 348 W/m2
13:50 44.7 °F 41.1 °F 30.31 in NE 6.0 mph 20.0 mph 87 % 0.00 in 322 W/m2
13:55 45.0 °F 41.4 °F 30.31 in East 5.0 mph 20.0 mph 87 % 0.00 in 327 W/m2
14:05 44.9 °F 41.3 °F 30.31 in ENE 6.0 mph 20.0 mph 87 % 0.00 in 200 W/m2
14:10 44.9 °F 41.3 °F 30.31 in East 6.0 mph 20.0 mph 87 % 0.00 in 285 W/m2
14:15 45.0 °F 41.1 °F 30.31 in ENE 6.0 mph 20.0 mph 86 % 0.00 in 260 W/m2
14:25 45.0 °F 41.1 °F 30.30 in NE 7.0 mph 20.0 mph 86 % 0.00 in 258 W/m2
14:30 44.9 °F 41.0 °F 30.30 in ENE 8.0 mph 20.0 mph 86 % 0.00 in 236 W/m2
14:35 44.7 °F 40.8 °F 30.30 in NE 9.0 mph 20.0 mph 86 % 0.00 in 246 W/m2
14:45 44.5 °F 40.6 °F 30.30 in NE 8.0 mph 20.0 mph 86 % 0.00 in 216 W/m2
14:50 44.3 °F 40.4 °F 30.30 in NE 9.0 mph 9.0 mph 86 % 0.00 in 214 W/m2
14:55 44.3 °F 40.7 °F 30.30 in East 8.0 mph 20.0 mph 87 % 0.00 in 213 W/m2
15:05 44.2 °F 40.6 °F 30.30 in ENE 7.0 mph 8.0 mph 87 % 0.00 in 200 W/m2
15:15 43.8 °F 40.2 °F 30.30 in NE 8.0 mph 20.0 mph 87 % 0.00 in 100 W/m2
15:20 43.4 °F 39.8 °F 30.30 in ENE 9.0 mph 9.0 mph 87 % 0.00 in 105 W/m2
15:25 43.2 °F 39.9 °F 30.29 in East 9.0 mph 20.0 mph 88 % 0.00 in 65 W/m2
15:30 42.9 °F 39.6 °F 30.29 in ENE 8.0 mph 8.0 mph 88 % 0.00 in 76 W/m2
15:40 42.4 °F 39.4 °F 30.29 in NE 8.0 mph 8.0 mph 89 % 0.00 in 67 W/m2
15:45 42.2 °F 39.2 °F 30.29 in ESE 8.0 mph 20.0 mph 89 % 0.00 in 32 W/m2
15:50 42.0 °F 39.3 °F 30.29 in NNE 8.0 mph 8.0 mph 90 % 0.00 in 32 W/m2
15:55 41.8 °F 39.1 °F 30.29 in NE 8.0 mph 10.0 mph 90 % 0.00 in 25 W/m2
16:05 41.4 °F 38.7 °F 30.29 in ENE 8.0 mph 20.0 mph 90 % 0.00 in 21 W/m2
16:10 41.1 °F 38.4 °F 30.29 in NNE 7.0 mph 20.0 mph 90 % 0.00 in 14 W/m2
16:15 41.0 °F 38.6 °F 30.29 in ENE 7.0 mph 20.0 mph 91 % 0.00 in 14 W/m2
16:20 40.8 °F 38.4 °F 30.29 in NE 6.0 mph 20.0 mph 91 % 0.00 in 11 W/m2
16:35 40.5 °F 38.1 °F 30.30 in ENE 6.0 mph 20.0 mph 91 % 0.00 in 7 W/m2
16:40 40.4 °F 38.0 °F 30.30 in NE 5.0 mph 20.0 mph 91 % 0.00 in 5 W/m2
16:45 40.3 °F 37.9 °F 30.30 in ENE 4.0 mph 20.0 mph 91 % 0.00 in 5 W/m2
16:50 40.2 °F 37.8 °F 30.30 in ENE 5.0 mph 20.0 mph 91 % 0.00 in 5 W/m2
16:55 40.2 °F 38.1 °F 30.29 in NE 5.0 mph 20.0 mph 92 % 0.00 in 0 W/m2
17:05 40.0 °F 37.9 °F 30.29 in East 5.0 mph 20.0 mph 92 % 0.00 in 0 W/m2
17:10 39.9 °F 37.8 °F 30.29 in ENE 6.0 mph 20.0 mph 92 % 0.00 in 0 W/m2
17:15 39.9 °F 37.8 °F 30.29 in ENE 6.0 mph 20.0 mph 92 % 0.00 in 0 W/m2
17:25 39.8 °F 37.7 °F 30.29 in NE 6.0 mph 20.0 mph 92 % 0.00 in 0 W/m2
17:30 39.7 °F 37.6 °F 30.29 in ENE 7.0 mph 20.0 mph 92 % 0.00 in 0 W/m2
17:35 39.7 °F 37.6 °F 30.29 in East 6.0 mph 20.0 mph 92 % 0.00 in 0 W/m2
17:40 39.6 °F 37.5 °F 30.29 in ENE 5.0 mph 5.0 mph 92 % 0.00 in 0 W/m2
17:45 39.6 °F 37.5 °F 30.29 in East 5.0 mph 20.0 mph 92 % 0.00 in 0 W/m2
17:55 39.6 °F 37.5 °F 30.30 in NE 4.0 mph 7.0 mph 92 % 0.00 in 0 W/m2
18:00 39.5 °F 37.4 °F 30.30 in East 4.0 mph 20.0 mph 92 % 0.00 in 0 W/m2
18:05 39.4 °F 37.3 °F 30.30 in East 5.0 mph 20.0 mph 92 % 0.00 in 0 W/m2
18:15 39.4 °F 37.3 °F 30.30 in ENE 3.0 mph 20.0 mph 92 % 0.00 in 0 W/m2
18:20 39.3 °F 37.2 °F 30.30 in NE 3.0 mph 20.0 mph 92 % 0.00 in 0 W/m2
18:25 39.3 °F 37.2 °F 30.30 in ESE 5.0 mph 20.0 mph 92 % 0.00 in 0 W/m2
18:35 39.2 °F 37.1 °F 30.30 in ENE 5.0 mph 7.0 mph 92 % 0.00 in 0 W/m2
18:40 39.2 °F 37.1 °F 30.30 in ENE 5.0 mph 20.0 mph 92 % 0.00 in 0 W/m2
18:45 39.2 °F 37.1 °F 30.30 in ENE 5.0 mph 20.0 mph 92 % 0.00 in 0 W/m2
18:55 39.3 °F 37.2 °F 30.30 in East 4.0 mph 20.0 mph 92 % 0.00 in 0 W/m2
19:05 39.2 °F 37.1 °F 30.30 in ESE 6.0 mph 20.0 mph 92 % 0.00 in 0 W/m2
19:10 39.2 °F 37.1 °F 30.30 in NE 5.0 mph 5.0 mph 92 % 0.00 in 0 W/m2
19:15 39.2 °F 37.1 °F 30.30 in ENE 6.0 mph 6.0 mph 92 % 0.00 in 0 W/m2
19:20 39.2 °F 37.1 °F 30.30 in East 5.0 mph 5.0 mph 92 % 0.00 in 0 W/m2
19:30 39.3 °F 36.9 °F 30.29 in SSE 4.0 mph 20.0 mph 91 % 0.00 in 0 W/m2
19:35 39.3 °F 36.9 °F 30.29 in ENE 5.0 mph 20.0 mph 91 % 0.00 in 0 W/m2
19:40 39.3 °F 36.9 °F 30.30 in East 5.0 mph 20.0 mph 91 % 0.00 in 0 W/m2
19:50 39.2 °F 37.1 °F 30.30 in East 6.0 mph 20.0 mph 92 % 0.00 in 0 W/m2
19:55 39.2 °F 36.8 °F 30.30 in ENE 5.0 mph 20.0 mph 91 % 0.00 in 0 W/m2
20:00 39.3 °F 37.2 °F 30.30 in East 5.0 mph 5.0 mph 92 % 0.00 in 0 W/m2
20:10 39.3 °F 37.2 °F 30.30 in East 4.0 mph 4.0 mph 92 % 0.00 in 0 W/m2
20:15 39.3 °F 37.2 °F 30.30 in ENE 4.0 mph 6.0 mph 92 % 0.00 in 0 W/m2
20:25 39.3 °F 37.2 °F 30.30 in NE 4.0 mph 20.0 mph 92 % 0.00 in 0 W/m2
20:30 39.3 °F 37.2 °F 30.30 in ESE 5.0 mph 5.0 mph 92 % 0.00 in 0 W/m2
20:35 39.3 °F 37.2 °F 30.30 in ESE 5.0 mph 20.0 mph 92 % 0.00 in 0 W/m2
20:45 39.3 °F 37.2 °F 30.30 in ENE 4.0 mph 7.0 mph 92 % 0.00 in 0 W/m2
20:50 39.3 °F 36.9 °F 30.30 in ENE 5.0 mph 5.0 mph 91 % 0.00 in 0 W/m2
21:00 39.3 °F 36.9 °F 30.30 in East 6.0 mph 20.0 mph 91 % 0.00 in 0 W/m2
21:05 39.3 °F 36.9 °F 30.30 in East 6.0 mph 20.0 mph 91 % 0.00 in 0 W/m2
21:10 39.3 °F 36.9 °F 30.30 in ESE 5.0 mph 5.0 mph 91 % 0.00 in 0 W/m2
21:15 39.3 °F 36.9 °F 30.30 in East 5.0 mph 20.0 mph 91 % 0.00 in 0 W/m2
21:20 39.3 °F 36.9 °F 30.30 in NE 5.0 mph 5.0 mph 91 % 0.00 in 0 W/m2
21:30 39.3 °F 36.9 °F 30.30 in ESE 5.0 mph 5.0 mph 91 % 0.00 in 0 W/m2
21:35 39.3 °F 36.9 °F 30.30 in ESE 5.0 mph 8.0 mph 91 % 0.00 in 0 W/m2
21:40 39.3 °F 36.9 °F 30.30 in East 5.0 mph 5.0 mph 91 % 0.00 in 0 W/m2
21:50 39.3 °F 36.9 °F 30.30 in ENE 3.0 mph 20.0 mph 91 % 0.00 in 0 W/m2
21:55 39.3 °F 36.9 °F 30.30 in SE 4.0 mph 20.0 mph 91 % 0.00 in 0 W/m2
22:00 39.3 °F 36.9 °F 30.30 in ENE 5.0 mph 5.0 mph 91 % 0.00 in 0 W/m2
22:10 39.3 °F 36.9 °F 30.29 in East 4.0 mph 20.0 mph 91 % 0.00 in 0 W/m2
22:15 39.3 °F 36.9 °F 30.29 in East 4.0 mph 20.0 mph 91 % 0.00 in 0 W/m2
22:20 39.3 °F 36.9 °F 30.29 in ENE 4.0 mph 20.0 mph 91 % 0.00 in 0 W/m2
22:25 39.3 °F 36.9 °F 30.29 in East 4.0 mph 20.0 mph 91 % 0.00 in 0 W/m2
22:30 39.2 °F 36.8 °F 30.29 in NE 5.0 mph 20.0 mph 91 % 0.00 in 0 W/m2
22:40 39.1 °F 36.7 °F 30.29 in ENE 5.0 mph 20.0 mph 91 % 0.00 in 0 W/m2
22:45 39.0 °F 36.9 °F 30.29 in ENE 5.0 mph 20.0 mph 92 % 0.00 in 0 W/m2
22:50 39.0 °F 36.9 °F 30.29 in ENE 6.0 mph 20.0 mph 92 % 0.00 in 0 W/m2
22:55 38.9 °F 36.8 °F 30.29 in NE 5.0 mph 20.0 mph 92 % 0.00 in 0 W/m2
23:00 38.8 °F 36.7 °F 30.29 in ENE 4.0 mph 4.0 mph 92 % 0.00 in 0 W/m2
23:10 38.5 °F 36.4 °F 30.29 in NE 4.0 mph 20.0 mph 92 % 0.00 in 0 W/m2
23:15 38.5 °F 36.4 °F 30.28 in East 3.0 mph 20.0 mph 92 % 0.00 in 0 W/m2
23:25 38.2 °F 36.1 °F 30.28 in NE 4.0 mph 20.0 mph 92 % 0.00 in 0 W/m2
23:30 38.1 °F 36.0 °F 30.28 in ENE 5.0 mph 5.0 mph 92 % 0.00 in 0 W/m2
23:35 38.0 °F 36.2 °F 30.28 in ENE 6.0 mph 6.0 mph 93 % 0.00 in 0 W/m2
23:40 37.8 °F 36.0 °F 30.28 in ENE 5.0 mph 5.0 mph 93 % 0.00 in 0 W/m2
23:50 37.5 °F 35.7 °F 30.28 in ENE 4.0 mph 20.0 mph 93 % 0.00 in 0 W/m2
23:55 37.4 °F 35.6 °F 30.28 in ENE 4.0 mph 20.0 mph 93 % 0.00 in 0 W/m2
Delerius-Weather
Compliments of Weather Underground - 2 mb

Data updates at regular intervals.